| time (UTC) | temp F | wind direction | speed knots | gust knots | rain 1hr in | rain 24hr in | rain mn in | humidity % | barometer mb |
| 20260504020012 | 61 | 343 | 12.2 | 27.8 | 0.00 | 0.18 | 0.00 | 62 | 1008.5 |
| 20260504014508 | 61 | 276 | 11.3 | 20.0 | 0.00 | 0.18 | 0.00 | 60 | 1008.6 |
| 20260504013009 | 62 | 16 | 7.8 | 22.6 | 0.00 | 0.18 | 0.00 | 59 | 1008.7 |
| 20260504011506 | 62 | 317 | 6.1 | 17.4 | 0.00 | 0.18 | 0.00 | 59 | 1008.8 |
| 20260504010004 | 62 | 331 | 7.0 | 18.2 | 0.00 | 0.24 | 0.00 | 59 | 1008.9 |
| 20260504004502 | 62 | 327 | 7.0 | 20.9 | 0.00 | 0.24 | 0.00 | 58 | 1008.9 |
| 20260504003104 | 61 | 340 | 8.7 | 20.0 | 0.00 | 0.24 | 0.00 | 58 | 1009.0 |
| 20260504001611 | 61 | 30 | 7.8 | 16.5 | 0.00 | 0.24 | 0.00 | 60 | 1009.2 |
| 20260504000156 | 60 | 342 | 8.7 | 17.4 | 0.00 | 0.24 | 0.00 | 61 | 1009.3 |
| 20260503234554 | 60 | 352 | 6.1 | 14.8 | 0.00 | 0.27 | 0.00 | 62 | 1009.4 |
| 20260503233050 | 59 | 45 | 7.0 | 14.8 | 0.00 | 0.27 | 0.00 | 65 | 1009.4 |
| 20260503231546 | 58 | 41 | 9.6 | 15.6 | 0.00 | 0.27 | 0.00 | 66 | 1009.5 |
| 20260503230047 | 58 | 63 | 7.0 | 13.9 | 0.00 | 0.27 | 0.00 | 68 | 1009.7 |
| 20260503224538 | 57 | 46 | 7.0 | 13.0 | 0.00 | 0.31 | 0.00 | 69 | 1009.6 |
| 20260503223037 | 55 | 23 | 7.0 | 13.0 | 0.00 | 0.31 | 0.00 | 71 | 1009.7 |
| 20260503221534 | 54 | 31 | 6.1 | 11.3 | 0.00 | 0.31 | 0.00 | 73 | 1009.8 |
| 20260503220045 | 53 | 32 | 5.2 | 9.6 | 0.00 | 0.31 | 0.00 | 74 | 1009.8 |
| 20260503214533 | 53 | 37 | 5.2 | 9.6 | 0.00 | 0.31 | 0.00 | 75 | 1009.8 |
| 20260503213132 | 52 | 3 | 7.0 | 13.0 | 0.00 | 0.31 | 0.00 | 75 | 1009.7 |
| 20260503211531 | 52 | 14 | 7.0 | 12.2 | 0.00 | 0.31 | 0.00 | 75 | 1009.7 |
| 20260503210029 | 53 | 339 | 6.1 | 9.6 | 0.00 | 0.31 | 0.00 | 74 | 1009.7 |
| 20260503204527 | 53 | 338 | 4.3 | 9.6 | 0.00 | 0.31 | 0.00 | 73 | 1009.6 |
| 20260503203030 | 53 | 2 | 5.2 | 10.4 | 0.00 | 0.31 | 0.00 | 72 | 1009.4 |
| 20260503201524 | 53 | 45 | 6.1 | 13.9 | 0.00 | 0.31 | 0.00 | 71 | 1009.3 |
| 20260503200021 | 52 | 360 | 6.1 | 9.6 | 0.00 | 0.31 | 0.00 | 72 | 1009.3 |
| 20260503194522 | 53 | 30 | 3.5 | 8.7 | 0.00 | 0.31 | 0.00 | 69 | 1009.4 |
| 20260503193017 | 54 | 25 | 2.6 | 7.8 | 0.00 | 0.31 | 0.00 | 69 | 1009.4 |
| 20260503191520 | 53 | 48 | 4.3 | 9.6 | 0.00 | 0.31 | 0.00 | 70 | 1009.5 |
| 20260503190013 | 52 | 360 | 2.6 | 7.0 | 0.00 | 0.31 | 0.00 | 72 | 1009.6 |
| 20260503184510 | 51 | 25 | 1.7 | 4.3 | 0.00 | 0.31 | 0.00 | 74 | 1009.8 |
| 20260503183007 | 53 | 68 | 0.9 | 5.2 | 0.00 | 0.31 | 0.00 | 71 | 1009.9 |
| 20260503181505 | 52 | 18 | 2.6 | 7.0 | 0.00 | 0.31 | 0.00 | 71 | 1009.8 |
| 20260503180008 | 53 | 71 | 4.3 | 8.7 | 0.00 | 0.31 | 0.00 | 71 | 1010.0 |
| 20260503174600 | 52 | 13 | 3.5 | 7.8 | 0.00 | 0.31 | 0.00 | 72 | 1010.0 |
| 20260503173102 | 52 | 46 | 1.7 | 6.1 | 0.00 | 0.31 | 0.00 | 73 | 1010.2 |
| 20260503171554 | 53 | 66 | 1.7 | 7.8 | 0.00 | 0.31 | 0.00 | 70 | 1010.2 |
| 20260503081615 | 60 | 39 | 2.6 | 7.0 | 0.00 | 0.31 | 0.31 | 67 | 1009.9 |
| 20260503080108 | 60 | 342 | 3.5 | 7.8 | 0.00 | 0.31 | 0.31 | 66 | 1009.9 |
| 20260503071549 | 63 | 319 | 2.6 | 7.8 | 0.00 | 0.31 | 0.31 | 60 | 1009.4 |
| 20260503054551 | 65 | 268 | 6.1 | 13.9 | 0.00 | 0.31 | 0.31 | 57 | 1009.4 |
| 20260503053043 | 65 | 291 | 7.8 | 13.9 | 0.00 | 0.31 | 0.31 | 57 | 1009.3 |
| 20260503051540 | 64 | 276 | 4.3 | 13.9 | 0.00 | 0.31 | 0.31 | 61 | 1009.3 |
| 20260503050041 | 60 | 302 | 2.6 | 9.6 | 0.00 | 0.31 | 0.31 | 88 | 1009.4 |
| 20260503044542 | 58 | 26 | 5.2 | 13.9 | 0.00 | 0.31 | 0.31 | 88 | 1009.1 |
| 20260503043042 | 58 | 300 | 6.1 | 10.4 | 0.00 | 0.31 | 0.31 | 88 | 1009.1 |
| 20260503041543 | 59 | 344 | 2.6 | 8.7 | 0.00 | 0.31 | 0.31 | 91 | 1009.1 |
| 20260503040045 | 58 | 306 | 3.5 | 8.7 | 0.00 | 0.31 | 0.31 | 91 | 1009.2 |
| 20260503034545 | 57 | 327 | 5.2 | 9.6 | 0.00 | 0.31 | 0.31 | 92 | 1009.3 |
| 20260503033042 | 56 | 323 | 3.5 | 8.7 | 0.01 | 0.31 | 0.31 | 92 | 1009.3 |
| 20260503031502 | 56 | 359 | 4.3 | 8.7 | 0.01 | 0.31 | 0.31 | 91 | 1009.4 |
| 20260503030113 | 56 | 338 | 4.3 | 11.3 | 0.01 | 0.31 | 0.31 | 91 | 1009.5 |
| 20260503024624 | 58 | 298 | 2.6 | 10.4 | 0.02 | 0.31 | 0.31 | 92 | 1009.3 |
| 20260503023105 | 58 | 319 | 0.9 | 7.8 | 0.11 | 0.30 | 0.30 | 91 | 1009.5 |
| 20260503021601 | 57 | 269 | 5.2 | 9.6 | 0.17 | 0.30 | 0.30 | 91 | 1009.7 |